Regional Weather Roundup
Issued by NWS

Home | Current Version | Previous Version | Graphics & Text | Print | Product List | Glossary On
Versions: 1 2 3 4 5 6 7 8 9 10 11 12 13 14 15 16 17 18 19 20 21 22 23 24 25 26 27 28 29 30 31 32 33 34 35 36 37 38 39 40 41 42 43 44 45 46 47 48 49
000
ASUS45 KCYS 180110
RWRWY

WYOMING REGIONAL WEATHER ROUNDUP
NATIONAL WEATHER SERVICE CHEYENNE WY
600 PM MST WED DEC 17 2014

NOTE:  "FAIR" INDICATES FEW OR NO CLOUDS BELOW 12,000 FEET
WITH NO SIGNIFICANT WEATHER AND/OR OBSTRUCTIONS TO VISIBILITY.

WYZ001-180200-
YELLOWSTONE NATIONAL PARK

CITY           SKY/WX    TMP DP  RH WIND       PRES   REMARKS
LK YELLOWSTONE   N/A     20  15  81 CALM      29.96R
W YELLOWSTONE  NOT AVBL

$$
WYZ002>013-054>058-071-098>099-180200-
NORTHERN WYOMING

CITY           SKY/WX    TMP DP  RH WIND       PRES   REMARKS
JACKSON        CLOUDY    28  25  86 SW5       29.96R WCI  23
CODY           FAIR      18  16  93 CALM      29.91S
GREYBULL       FAIR      19  15  84 CALM      29.96R
WORLAND        FAIR      10   7  87 S8        29.95R WCI  -2
SHERIDAN       FAIR      18  13  80 S3        29.94S
BUFFALO        FAIR      24  17  74 W5        29.94S WCI  18
GILLETTE       FAIR      20  15  81 CALM      29.94S
HULETT           N/A    N/A N/A N/A MISG        N/A
NEWCASTLE      FAIR      18  16  93 CALM      29.97S

$$
WYZ014>020-022>026-101>103-180200-
CENTRAL WYOMING

CITY           SKY/WX    TMP DP  RH WIND       PRES   REMARKS
BIG PINEY      FAIR      20  15  81 NE7       29.97R WCI  11
PINEDALE       FAIR      18  14  86 NW7       29.97S WCI   8
DUBOIS         MOCLDY    27  18  69 NW12      29.91R WCI  16
LANDER         FOG        8   6  92 CALM      29.94R VSB 1/4
RIVERTON       FOG       17  14  88 CALM      29.96R VSB 1/4
CASPER         FAIR      27  19  72 SW14      29.93R WCI  16
DOUGLAS        FAIR      23  19  85 N3        29.94R

$$
WYZ021-027>030-104>119-180200-
SOUTHERN WYOMING

CITY           SKY/WX    TMP DP  RH WIND       PRES   REMARKS
EVANSTON       FAIR      29  18  63 W8        29.97R WCI  21
KEMMERER       CLOUDY    28  21  74 NW6       29.97R WCI  22
FORT BRIDGER   MOCLDY    32  19  59 W3        30.00R
ROCK SPRINGS   FAIR      22  16  78 S6        29.97S WCI  14
DIXON          FOG      N/A N/A N/A CALM      30.02R VSB 1/4
RAWLINS        FAIR      22  15  75 SW9       29.96R WCI  12
SARATOGA       FAIR      19  18  93 SE5       29.97S WCI  13
LARAMIE        FAIR      22  15  75 NE8       29.93R WCI  12
CHEYENNE       FAIR      34  18  52 NW7       29.93R WCI  28
TORRINGTON     FAIR      14  12  92 E7        29.95S WCI   4
PINE BLUFFS    MOCLDY    30  27  86 S5        29.94S WCI  25

$$



USA.gov is the U.S. government's official web portal to all federal, state and local government web resources and services.